[[{"header":{"parameterUnit":"m.s-1","parameterCategory":1,"la1":30.2992,"la2":30.254,"lo1":-89.0895,"lo2":-89.0443,"dy":0.0025,"dx":0.0025,"nx":19,"ny":19,"refTime":"2026-03-27T09:00:00:Z","depth":0,"parameterNumber":2,"parameterNumberName":"U-component_of_WINDS"},"data":[0,0,0,-1.1755,-1.1756,-1.1829,-1.1829,-1.1925,-1.1925,0,0,0,0,0,0,0,0,0,0,0,-1.1733,-1.1734,-1.1755,-1.1756,-1.1829,-1.1829,-1.1924,-1.1925,0,0,0,0,0,0,0,0,0,0,0,-1.1733,-1.1734,-1.1734,-1.1757,-1.1829,-1.1829,-1.1924,-1.1869,0,0,0,0,0,0,0,0,0,0,-1.1798,-1.1778,-1.1734,-1.1735,-1.1757,-1.1829,-1.1829,-1.1866,-1.1872,-1.1892,0,-1.1908,0,-1.1918,-1.1932,-1.1932,0,0,0,-1.1757,-1.1773,-1.1792,-1.1735,-1.1758,-1.1829,-1.1796,-1.187,-1.1877,-1.19,-1.191,-1.1913,-1.192,-1.1932,-1.1933,-1.2041,-1.2042,0,0,-1.1753,-1.1747,-1.1787,-1.1797,-1.1784,-1.1794,-1.1799,-1.1874,-1.1884,-1.191,-1.1915,-1.1921,-1.1933,-1.1934,-1.2041,-1.2041,0,0,0,-1.1741,-1.1744,-1.1761,-1.1793,-1.1805,-1.1796,-1.1801,-1.1881,-1.1887,-1.1917,-1.1923,-1.1934,-1.1935,-1.204,-1.2041,-1.2058,0,0,0,-1.1739,-1.1737,-1.176,-1.1757,-1.1804,-1.1844,-1.1807,-1.1882,-1.1891,-1.1922,-1.1934,-1.1936,-1.204,-1.2041,-1.2057,-1.2068,0,0,0,-1.1729,-1.1736,-1.1746,-1.1756,-1.1787,-1.1843,-1.1853,-1.1884,-1.1894,-1.1932,-1.1936,-1.2039,-1.204,-1.2055,-1.2066,-1.2095,0,0,0,-1.1716,-1.1761,-1.1746,-1.1799,-1.1786,-1.1852,-1.1853,-1.1903,-1.1937,-1.1934,-1.204,-1.2041,-1.2055,-1.2065,-1.2094,-1.212,-1.213,0,0,-1.177,-1.1768,-1.1799,-1.1787,-1.1854,-1.1841,-1.1912,-1.195,-1.196,-1.2014,-1.2017,-1.2057,-1.2066,-1.2095,-1.2184,-1.2192,0,0,0,-1.1814,-1.1836,-1.1855,-1.1887,-1.1916,-1.1942,-1.197,-1.1984,-1.203,-1.1986,-1.2075,-1.2081,-1.2098,-1.2111,-1.2118,-1.2134,-1.2046,-1.2046,-1.2046,-1.1882,-1.189,-1.1943,-1.1961,-1.1991,-1.2019,-1.2045,-1.2069,-1.207,-1.2091,-1.2108,-1.2161,-1.2175,-1.218,-1.2197,-1.2121,-1.2121,-1.2121,-1.2121,-1.1961,-1.1995,-1.1994,-1.2045,-1.2054,-1.2098,-1.2126,-1.2125,-1.2168,-1.2149,-1.2165,-1.2145,-1.2189,-1.2204,-1.2123,-1.2123,-1.2122,-1.2122,-1.2122,-1.2008,-1.2026,-1.2041,-1.2087,-1.2122,-1.2138,-1.2179,-1.2186,-1.2193,-1.2209,-1.2228,-1.2228,-1.2229,-1.2217,-1.2217,-1.2217,-1.2217,-1.2218,-1.2218,-1.2051,-1.2067,-1.21,-1.2133,-1.2154,-1.2183,-1.221,-1.2232,-1.2258,-1.226,-1.226,-1.226,-1.219,-1.2173,-1.2221,-1.222,-1.222,-1.222,-1.2219,-1.2132,-1.2114,-1.2165,-1.2185,-1.2225,-1.226,-1.2267,-1.231,-1.2329,-1.2349,-1.2345,-1.2291,-1.229,-1.2285,-1.2272,-1.2342,-1.2342,-1.2342,-1.2342,-1.2172,-1.2171,-1.2224,-1.2257,-1.229,-1.2302,-1.236,-1.2381,-1.2401,-1.2414,-1.2404,-1.2386,-1.238,-1.2383,-1.2376,-1.2363,-1.2455,-1.2455,-1.2455,-1.2223,-1.2225,-1.2273,-1.229,-1.2322,-1.2349,-1.2404,-1.2443,-1.2462,-1.246,-1.2424,-1.2419,-1.239,-1.2379,-1.2378,-1.2367,-1.2344,0,0]},{"header":{"parameterUnit":"m.s-1","parameterCategory":1,"la1":30.2992,"la2":30.254,"lo1":-89.0895,"lo2":-89.0443,"dy":0.0025,"dx":0.0025,"nx":19,"ny":19,"refTime":"2026-03-27T09:00:00:Z","depth":0,"parameterNumber":3,"parameterNumberName":"V-component_of_WINDS"},"data":[0,0,0,-6.6068,-6.6069,-6.6086,-6.6086,-6.6128,-6.6129,0,0,0,0,0,0,0,0,0,0,0,-6.6075,-6.6076,-6.6068,-6.6069,-6.6086,-6.6086,-6.6128,-6.6129,0,0,0,0,0,0,0,0,0,0,0,-6.6075,-6.6075,-6.6076,-6.6069,-6.6086,-6.6086,-6.6128,-6.6108,0,0,0,0,0,0,0,0,0,0,-6.6088,-6.6105,-6.6075,-6.6076,-6.6069,-6.6086,-6.6086,-6.6107,-6.6109,-6.6129,0,-6.615,0,-6.614,-6.6133,-6.6133,0,0,0,-6.606,-6.6103,-6.6097,-6.6076,-6.6069,-6.6086,-6.6076,-6.6108,-6.6111,-6.6133,-6.615,-6.6151,-6.6141,-6.6134,-6.6134,-6.628,-6.6281,0,0,-6.6059,-6.6084,-6.6096,-6.61,-6.6098,-6.6075,-6.6076,-6.6109,-6.613,-6.615,-6.6152,-6.6142,-6.6134,-6.6134,-6.6279,-6.628,0,0,0,-6.6062,-6.6084,-6.6077,-6.6099,-6.61,-6.6076,-6.6077,-6.6129,-6.6124,-6.6152,-6.6142,-6.6134,-6.6135,-6.6278,-6.6279,-6.636,0,0,0,-6.6061,-6.6086,-6.6077,-6.6092,-6.61,-6.6115,-6.6096,-6.6122,-6.6125,-6.6142,-6.6134,-6.6136,-6.6276,-6.6279,-6.6355,-6.6394,0,0,0,-6.607,-6.6087,-6.6093,-6.6094,-6.6102,-6.6113,-6.6111,-6.6122,-6.6119,-6.6133,-6.6136,-6.6276,-6.6278,-6.6351,-6.6386,-6.6441,0,0,0,-6.6086,-6.6163,-6.6095,-6.6178,-6.6102,-6.6163,-6.611,-6.6154,-6.6175,-6.6135,-6.6277,-6.6279,-6.6349,-6.6382,-6.6437,-6.6492,-6.6518,0,0,-6.6197,-6.6177,-6.6224,-6.6164,-6.6243,-6.6158,-6.625,-6.6245,-6.6222,-6.6262,-6.6265,-6.6357,-6.6386,-6.644,-6.6649,-6.6669,0,0,0,-6.6268,-6.6302,-6.6318,-6.634,-6.6339,-6.6342,-6.6321,-6.6319,-6.6352,-6.6248,-6.639,-6.6406,-6.6437,-6.6463,-6.648,-6.6505,-6.6292,-6.6292,-6.6291,-6.6462,-6.6431,-6.6507,-6.6478,-6.6501,-6.6479,-6.6495,-6.649,-6.645,-6.6484,-6.6496,-6.6627,-6.6657,-6.667,-6.6697,-6.6522,-6.6522,-6.6522,-6.6523,-6.6624,-6.6668,-6.6616,-6.6671,-6.6637,-6.6683,-6.6666,-6.6637,-6.6675,-6.6614,-6.664,-6.6577,-6.6694,-6.6716,-6.6528,-6.6527,-6.6527,-6.6526,-6.6526,-6.6749,-6.6765,-6.6762,-6.6793,-6.6821,-6.6789,-6.6829,-6.6796,-6.6766,-6.6791,-6.6801,-6.68,-6.6796,-6.6798,-6.6799,-6.6799,-6.68,-6.68,-6.68,-6.6879,-6.6874,-6.6912,-6.692,-6.6931,-6.6942,-6.6923,-6.6933,-6.6936,-6.691,-6.691,-6.6868,-6.671,-6.6672,-6.6807,-6.6806,-6.6805,-6.6804,-6.6804,-6.7057,-6.7012,-6.7071,-6.7083,-6.709,-6.7121,-6.7079,-6.7104,-6.7107,-6.7129,-6.7082,-6.697,-6.6947,-6.6933,-6.6901,-6.7087,-6.7087,-6.7087,-6.7087,-6.7163,-6.7149,-6.7203,-6.7224,-6.7241,-6.721,-6.7279,-6.7266,-6.7245,-6.7246,-6.7214,-6.7169,-6.7156,-6.714,-6.7122,-6.7092,-6.7322,-6.7322,-6.7323,-6.7272,-6.7258,-6.7322,-6.7302,-6.7306,-6.731,-6.7374,-6.7402,-6.7368,-6.7331,-6.7246,-6.7236,-6.7163,-6.714,-6.7102,-6.7074,-6.7018,0,0]}]]